This demonstration page uses our WeatherBlox Daily Observations layout. Learn more.

Left ArrowRight Arrow

39.92423, -83.80882

Hourly Observations for April 9, 2022

Temp ( °F °C ) Dew Point ( °F °C ) Humidity (%) Winds ( mph kmh ) Pressure ( in mb ) Visibility ( mi km ) Precip ( " mm )
12:24 am 00:24 Cloudy 37 3 37 3 100 100 WSW 10 17 29.76 1008 10 16 0.00 0.00
12:56 am 00:56 Cloudy with Light Rain 38 3.3 38 3.3 100 100 WSW 12 19 29.74 1007 10 16 0.00 0.00
1:56 am 01:56 Cloudy with Light Rain 37 2.8 37 2.8 100 100 WSW 10 17 29.73 1007 10 16 0.00 0.00
2:46 am 02:46 Cloudy with Light Rain 37 3 N/A N/A WSW 12 19 29.74 1007 4 6 0.00 0.00
2:56 am 02:56 Cloudy with Light Rain 36 2 N/A N/A WSW 13 20 29.72 1006 4 6 0.00 0.00
3:56 am 03:56 Cloudy with Light Rain 36 2 N/A N/A WSW 13 20 29.72 1006 10 16 0.00 0.00
4:56 am 04:56 Cloudy with Light Rain 36 2 N/A N/A W 14 22 29.72 1007 10 16 0.00 0.00
5:56 am 05:56 Cloudy with Light Rain 36 2 N/A N/A WSW 15 24 29.73 1007 10 16 0.00 0.00
6:56 am 06:56 Cloudy with Light Rain 34 1 N/A N/A WSW 14 22 29.74 1007 10 16 0.00 0.00
7:56 am 07:56 Cloudy with Light Snow N/A N/A N/A WSW 12 19 N/A 4 6 0.00 0.00
8:56 am 08:56 Cloudy with Light Snow N/A N/A N/A W 16 26 N/A 4 6 0.00 0.00
9:56 am 09:56 Cloudy with Light Snow 36 2 N/A N/A WNW 17 28 29.79 1009 8 13 0.00 0.00
10:09 am 10:09 Cloudy with Light Rain 36 2 N/A N/A W 14 22 29.81 1010 10 16 0.00 0.00
10:56 am 10:56 Cloudy with Light Rain 37 2.8 37 2.8 100 100 W 13 20 29.81 1009 10 16 0.00 0.00
11:19 am 11:19 Cloudy with Light Rain 37 3 37 3 100 100 W 15 24 29.83 1010 7 11 0.00 0.00
11:26 am 11:26 Cloudy with Light Rain 37 3 37 3 100 100 W 16 26 29.83 1010 10 16 0.00 0.00
11:35 am 11:35 Cloudy with Light Rain 37 3 37 3 100 100 W 15 24 29.83 1010 10 16 0.00 0.00
11:56 am 11:56 Cloudy with Light Rain 37 2.8 37 2.8 100 100 W 18 30 29.81 1010 10 16 0.00 0.00
12:04 pm 12:04 Cloudy with Light Rain 37 3 37 3 100 100 W 17 28 29.83 1010 10 16 0.00 0.00
12:29 pm 12:29 Cloudy 37 3 36 2 93 93 W 12 19 29.83 1010 10 16 0.00 0.00
12:56 pm 12:56 Cloudy 39 3.9 35 1.7 86 86 W 13 20 29.81 1010 10 16 0.00 0.00
1:37 pm 13:37 Cloudy with Light Snow 37 3 36 2 93 93 W 12 19 29.84 1011 9 14 0.00 0.00
1:48 pm 13:48 Cloudy with Light Rain 37 3 37 3 100 100 WNW 16 26 29.84 1011 6 10 0.00 0.00
1:56 pm 13:56 Cloudy with Light Snow 35 1.7 35 1.7 100 100 WNW 15 24 29.83 1010 3 5 0.00 0.00
2:56 pm 14:56 Cloudy with Light Rain 38 3.3 34 1.1 86 86 WNW 12 19 29.83 1010 10 16 0.00 0.00
3:36 pm 15:36 Cloudy with Light Rain 37 3 34 1 87 87 WNW 14 22 29.86 1011 10 16 0.00 0.00
3:56 pm 15:56 Cloudy with Light Rain 37 2.8 33 0.6 86 86 WNW 17 28 29.85 1011 8 13 0.00 0.00
4:56 pm 16:56 Cloudy 37 2.8 31 -0.6 79 79 WNW 20 31 29.87 1012 10 16 0.00 0.00
5:56 pm 17:56 Cloudy 38 3.3 31 -0.6 76 76 WNW 14 22 29.89 1012 10 16 0.00 0.00
6:56 pm 18:56 Cloudy 38 3.3 30 -1.1 73 73 WNW 15 24 29.91 1013 10 16 0.00 0.00
7:08 pm 19:08 Cloudy 37 3 30 -1 75 75 WNW 13 20 29.93 1014 10 16 0.00 0.00
7:20 pm 19:20 Cloudy 37 3 30 -1 75 75 WNW 12 19 29.93 1014 10 16 0.00 0.00
7:56 pm 19:56 Cloudy 37 2.8 31 -0.6 79 79 WNW 9 15 29.94 1014 10 16 0.00 0.00
8:56 pm 20:56 Cloudy 37 2.8 32 0 82 82 WNW 6 9 29.96 1015 10 16 0.00 0.00
9:56 pm 21:56 Cloudy 37 2.8 32 0 82 82 W 6 9 29.97 1015 10 16 0.00 0.00
10:56 pm 22:56 Cloudy 36 2.2 34 1.1 93 93 SW 5 7 29.98 1015 10 16 0.00 0.00
11:56 pm 23:56 Cloudy 36 2.2 34 1.1 93 93 SW 5 7 29.99 1016 10 16 0.00 0.00

Powered by AerisWeather